Flag for U.S.A. Weather past 2 weeks in Baker Island, U.S.A.

Now
86 °F

Scattered showers. Broken clouds.


Feels Like: 99 °F
Forecast: 82 / 84 °F
Wind: 16 mph from Southeast

Location: Funafuti

Current Time: Sep 22, 2014 at 2:24:06 PM

Latest Report: Sep 22, 2014 at 2:00 PM


Visibility: N/A

Pressure: 29.80 "Hg

Humidity: 79%

Dew point: 79 °F

Location of Baker IslandLocation

Historic Weather in Baker Island — Graph

°F

Baker Island temperature yesterday

Maximum temperature yesterday: 90 °F (at 10:00 AM)
Minimum temperature yesterday: 82 °F (at 1:00 AM)
Average temperature yesterday: 86 °F

Past Weeks' High & Low Weather Summary

 TemperatureHumidityPressure
High90 °F (Sep 9, 1:00 PM)94% (Sep 7, 11:00 PM)29.95 "Hg (Sep 7, 11:00 PM)
Low77 °F (Sep 8, 6:00 AM)66% (Sep 9, 10:00 AM)29.74 "Hg (Sep 13, 3:00 PM)
Average84 °F81%29.83 "Hg
* Reported Sep 7 1:00 PM — Sep 22 1:00 PM, Baker Island, Weather by CustomWeather, © 2014

Note: Actual official high and low records may vary slightly from our data, if they occured in-between our weather recording intervals... More about our weather records

Advertising

Baker Island weather history for previous 24 hours

 ConditionsComfort  
Time TempWeatherWind HumidityBarometerVisibility
1:00 PM
Sep 22
84 °FScattered showers. Broken clouds.18 mph84%N/AN/A
12:00 PM84 °FScattered showers. Broken clouds.16 mph84%29.83 "HgN/A
11:00 AM84 °FScattered showers. Broken clouds.20 mph84%29.86 "HgN/A
10:00 AM84 °FScattered showers. Broken clouds.17 mph84%29.89 "HgN/A
9:00 AM84 °FScattered showers. Broken clouds.18 mph79%29.86 "HgN/A
8:00 AM84 °FScattered showers. Broken clouds.21 mph79%29.86 "HgN/A
7:00 AM82 °FBroken clouds.20 mph84%29.83 "HgN/A
6:00 AM84 °FBroken clouds.15 mph79%29.80 "HgN/A
5:00 AM84 °FPassing clouds.17 mph79%29.80 "HgN/A
4:00 AM84 °FPassing clouds.20 mph79%29.80 "HgN/A
2:00 AM82 °FPassing clouds.20 mph84%29.80 "HgN/A
12:00 AM84 °FPassing clouds.12 mph79%29.83 "HgN/A
11:00 PM
Sep 21
84 °FPassing clouds.12 mph79%29.86 "HgN/A
10:00 PM84 °FPassing clouds.14 mph79%29.86 "HgN/A
9:00 PM84 °FPassing clouds.12 mph74%29.83 "HgN/A
8:00 PM84 °FPassing clouds.12 mph79%29.83 "HgN/A
7:00 PM84 °FPassing clouds.12 mph79%29.80 "HgN/A
6:00 PM84 °FPassing clouds.14 mph79%29.77 "HgN/A
5:00 PM88 °FScattered clouds.9 mph75%29.77 "HgN/A
4:00 PM88 °FPassing clouds.10 mph70%29.74 "HgN/A
3:00 PM88 °FPassing clouds.12 mph70%29.77 "HgN/A
2:00 PM90 °FScattered clouds.8 mph71%29.77 "HgN/A
Weather by CustomWeather, © 2014

See weather overviewHow to use our weather pages